Change the Weather History Date:

Wednesday, March 20, 2013

  Actual Average Record
Temperature  
Mean Temperature 36 °F -  
Max Temperature 58 °F 59 °F 80 °F (2007)
Min Temperature 14 °F 29 °F 14 °F (2013)
Degree Days  
Heating Degree Days 29 21  
Month to date heating degree days 424 474  
Since 1 July heating degree days 4201 4480  
Cooling Degree Days 0 0  
Month to date cooling degree days 0 0  
Year to date cooling degree days 0 0  
Moisture  
Dew Point 18 °F    
Average Humidity 42    
Maximum Humidity 62    
Minimum Humidity 22    
Precipitation  
Precipitation 0.00 in 0.04 in 4.04 in (2006)
Month to date precipitation 0.09 0.66  
Year to date precipitation 0.22 1.47  
Sea Level Pressure  
Sea Level Pressure 30.06 in    
Wind  
Wind Speed 13 mph (SW)    
Max Wind Speed 36 mph    
Max Gust Speed 41 mph    
T = Trace of Precipitation, MM = Missing Value Source: NWS Daily Summary

Daily Weather History Graph

Daily Weather History Graph

Search for Another Location

Airport or City:

Trip Planner

Search our weather history database for the weather conditions in past years. The results will help you decide how hot, cold, wet, or windy it might be!

Date:

Astronomy

Mar. 20, 2013 Rise Set
Actual Time 6:53 AM MDT 7:02 PM MDT
Civil Twilight 6:27 AM MDT 7:28 PM MDT
Nautical Twilight 5:57 AM MDT 7:59 PM MDT
Astronomical Twilight 5:26 AM MDT 8:29 PM MDT
Moon 12:46 PM MDT (3/20) 2:27 AM MDT (3/20)
Length of Visible Light 13h 01m
Length of Day
12h 09m
First Quarter, 60% of the Moon is Illuminated
Mar 20
First Quarter
Mar 27
Full
Apr 2
Last Quarter
Apr 10
New
Apr 18
First Quarter

Hourly Weather History & Observations

Time (MDT) Temp. Windchill Dew Point Humidity Pressure Visibility Wind Dir Wind Speed Gust Speed Precip Events Conditions
12:56 AM 23.0 °F 14.7 °F 8.1 °F 53% 30.29 in - WNW 6.9 mph - N/A   Unknown
1:56 AM 21.0 °F 16.2 °F 8.1 °F 57% 30.30 in - West 3.5 mph - N/A   Unknown
2:56 AM 19.0 °F 11.1 °F 8.1 °F 62% 30.30 in - NNW 5.8 mph - N/A   Unknown
3:56 AM 21.0 °F 13.4 °F 8.1 °F 57% 30.28 in - NNW 5.8 mph - N/A   Unknown
4:56 AM 19.9 °F - 8.1 °F 60% 30.30 in - Calm Calm - N/A   Unknown
5:56 AM 21.0 °F - 8.1 °F 57% 30.30 in - Calm Calm - N/A   Unknown
6:56 AM 19.0 °F - 8.1 °F 62% 30.33 in - Calm Calm - N/A   Unknown
7:56 AM 25.0 °F - 12.0 °F 58% 30.30 in - Calm Calm - N/A   Unknown
8:56 AM 34.0 °F 27.2 °F 16.0 °F 48% 30.30 in - South 8.1 mph - N/A   Unknown
9:56 AM 39.9 °F 32.9 °F 14.0 °F 35% 30.26 in - South 11.5 mph - N/A   Unknown
10:56 AM 46.0 °F 38.5 °F 12.0 °F 25% 30.19 in - South 19.6 mph 25.3 mph N/A   Unknown
11:56 AM 53.1 °F - 16.0 °F 23% 30.14 in - SW 25.3 mph 33.4 mph N/A   Unknown
12:56 PM 55.9 °F - 21.0 °F 26% 30.06 in - SSW 23.0 mph 35.7 mph N/A   Unknown
1:56 PM 55.0 °F - 23.0 °F 29% 30.01 in - SW 23.0 mph 41.4 mph N/A   Unknown
3:56 PM 55.0 °F - 25.0 °F 31% 29.92 in - SW 20.7 mph 36.8 mph N/A   Unknown
4:56 PM 57.9 °F - 27.0 °F 31% 29.87 in - SW 19.6 mph 34.5 mph N/A   Unknown
5:56 PM 55.9 °F - 27.0 °F 33% 29.84 in - SW 15.0 mph 26.5 mph N/A   Unknown
6:56 PM 53.1 °F - 27.0 °F 37% 29.83 in - SSW 16.1 mph - N/A   Unknown
7:56 PM 51.1 °F - 28.0 °F 41% 29.79 in - SW 17.3 mph - N/A   Unknown
8:56 PM 50.0 °F - 28.0 °F 43% 29.75 in - SW 15.0 mph - N/A   Unknown
9:56 PM 48.9 °F - 28.9 °F 46% 29.72 in - SW 11.5 mph - N/A   Unknown
10:56 PM 48.9 °F - 28.9 °F 46% 29.67 in - WSW 15.0 mph - N/A   Unknown
11:56 PM 46.0 °F 41.0 °F 28.0 °F 50% 29.64 in - West 10.4 mph 17.3 mph N/A   Unknown